Everett-Stewart Regional Airp, TN

9:53 PM CDT on August 20, 2017 (GMT -0500)
Everett-Stewart

Weather History for KUCY - June, 2017

Change the Weather History Date:

Monday, June 19, 2017

  Actual Average (KDYR) Record (KDYR)
Temperature  
Mean Temperature 76 °F -  
Max Temperature 84 °F 83 °F 93 °F (1998)
Min Temperature 68 °F 65 °F 57 °F (2008)
Cooling Degree Days 11    
Growing Degree Days 26 (Base 50)    
Moisture  
Dew Point 63 °F    
Average Humidity 68    
Maximum Humidity 100    
Minimum Humidity 35    
Precipitation  
Precipitation 0.00 in - - ()
Sea Level Pressure  
Sea Level Pressure 29.96 in    
Wind  
Wind Speed 3 mph (NW)    
Max Wind Speed 12 mph    
Max Gust Speed 14 mph    
Visibility 10 miles    
Events      
Averages and records for this station are not official NWS values.
T = Trace of Precipitation, MM = Missing Value Source: NWS Daily Summary

Daily Weather History Graph

Daily Weather History Graph

Search for Another Location

Airport or City:

Trip Planner

Search our weather history database for the weather conditions in past years. The results will help you decide how hot, cold, wet, or windy it might be!

Date:

Astronomy

Jun. 19, 2017 Rise Set
Actual Time 5:38 AM CDT 8:16 PM CDT
Civil Twilight 5:07 AM CDT 8:47 PM CDT
Nautical Twilight 4:29 AM CDT 9:25 PM CDT
Astronomical Twilight 3:47 AM CDT 10:07 PM CDT
Moon 2:17 AM CDT (6/19) 3:16 PM CDT (6/19)
Length of Visible Light 15h 39m
Length of Day
14h 38m
Waning Crescent, 26% of the Moon is Illuminated
Jun 19
Waning Crescent
Jun 23
New
Jun 30
First Quarter
Jul 8
Full
Jul 16
Last Quarter

Hourly Weather History & Observations

Time (CDT) Temp. Heat Index Dew Point Humidity Pressure Visibility Wind Dir Wind Speed Gust Speed Precip Events Conditions
12:15 AM 73.4 °F - 71.6 °F 94% 29.88 in 10.0 mi West 4.6 mph - N/A   Clear
12:35 AM 73.4 °F - 71.6 °F 94% 29.88 in 10.0 mi West 3.5 mph - N/A   Clear
12:55 AM 71.6 °F - 71.6 °F 100% 29.88 in 10.0 mi West 3.5 mph - N/A   Scattered Clouds
1:15 AM 71.6 °F - 69.8 °F 94% 29.88 in 10.0 mi Calm Calm - N/A   Overcast
1:35 AM 71.6 °F - 69.8 °F 94% 29.88 in 10.0 mi WNW 3.5 mph - N/A   Overcast
1:55 AM 71.6 °F - 69.8 °F 94% 29.89 in 10.0 mi WNW 4.6 mph - N/A   Overcast
2:15 AM 71.6 °F - 69.8 °F 94% 29.88 in 10.0 mi NW 4.6 mph - N/A   Mostly Cloudy
2:35 AM 71.6 °F - 68.0 °F 88% 29.89 in 10.0 mi Calm Calm - N/A   Mostly Cloudy
2:55 AM 69.8 °F - 68.0 °F 94% 29.89 in 10.0 mi Calm Calm - N/A   Overcast
3:15 AM 69.8 °F - 68.0 °F 94% 29.89 in 10.0 mi Calm Calm - N/A   Overcast
3:35 AM 69.8 °F - 68.0 °F 94% 29.90 in 10.0 mi Calm Calm - N/A   Overcast
3:55 AM 69.8 °F - 68.0 °F 94% 29.90 in 10.0 mi Calm Calm - N/A   Mostly Cloudy
4:15 AM 69.8 °F - 66.2 °F 88% 29.90 in 10.0 mi Calm Calm - N/A   Partly Cloudy
4:35 AM 68.0 °F - 66.2 °F 94% 29.90 in 10.0 mi Calm Calm - N/A   Clear
4:55 AM 68.0 °F - 66.2 °F 94% 29.90 in 10.0 mi Calm Calm - N/A   Clear
5:15 AM 68.0 °F - 66.2 °F 94% 29.91 in 10.0 mi Calm Calm - N/A   Mostly Cloudy
5:35 AM 68.0 °F - 66.2 °F 94% 29.92 in 10.0 mi Calm Calm - N/A   Mostly Cloudy
5:55 AM 68.0 °F - 66.2 °F 94% 29.92 in 10.0 mi Calm Calm - N/A   Scattered Clouds
6:15 AM 69.8 °F - 66.2 °F 88% 29.93 in 10.0 mi Calm Calm - N/A   Scattered Clouds
6:35 AM 69.8 °F - 68.0 °F 94% 29.93 in 10.0 mi Calm Calm - N/A   Partly Cloudy
6:55 AM 69.8 °F - 68.0 °F 94% 29.94 in 10.0 mi Calm Calm - N/A   Clear
7:15 AM 71.6 °F - 68.0 °F 88% 29.94 in 10.0 mi Calm Calm - N/A   Scattered Clouds
7:35 AM 71.6 °F - 66.2 °F 83% 29.95 in 10.0 mi Calm Calm - N/A   Scattered Clouds
7:55 AM 73.4 °F - 68.0 °F 83% 29.96 in 10.0 mi Calm Calm - N/A   Clear
8:15 AM 75.2 °F - 66.2 °F 73% 29.97 in 10.0 mi Calm Calm - N/A   Clear
8:35 AM 75.2 °F - 66.2 °F 73% 29.98 in 10.0 mi NW 5.8 mph - N/A   Clear
8:55 AM 77.0 °F - 66.2 °F 69% 29.98 in 10.0 mi NW 5.8 mph - N/A   Clear
9:15 AM 77.0 °F - 66.2 °F 69% 29.98 in 10.0 mi NW 5.8 mph - N/A   Clear
9:35 AM 78.8 °F - 64.4 °F 61% 29.99 in 10.0 mi NW 6.9 mph - N/A   Clear
9:55 AM 78.8 °F - 64.4 °F 61% 29.99 in 10.0 mi NW 6.9 mph - N/A   Clear
10:15 AM 78.8 °F - 62.6 °F 57% 29.99 in 10.0 mi NNW 8.1 mph - N/A   Clear
10:35 AM 80.6 °F 81.8 °F 62.6 °F 54% 30.00 in 10.0 mi Variable 5.8 mph 11.5 mph N/A   Clear
10:55 AM 80.6 °F 81.5 °F 60.8 °F 51% 30.00 in 10.0 mi NNW 9.2 mph - N/A   Clear
11:15 AM 80.6 °F 81.8 °F 62.6 °F 54% 30.00 in 10.0 mi NW 6.9 mph - N/A   Clear
11:35 AM 82.4 °F 82.9 °F 60.8 °F 48% 30.00 in 10.0 mi WNW 5.8 mph - N/A   Clear
11:55 AM 82.4 °F 82.5 °F 59.0 °F 45% 30.00 in 10.0 mi North 9.2 mph - N/A   Clear
12:15 PM 82.4 °F 82.9 °F 60.8 °F 48% 30.00 in 10.0 mi NNW 8.1 mph - N/A   Clear
12:35 PM 82.4 °F 82.0 °F 57.2 °F 42% 30.00 in 10.0 mi NW 5.8 mph - N/A   Clear
12:55 PM 82.4 °F 82.5 °F 59.0 °F 45% 30.00 in 10.0 mi Variable 5.8 mph - N/A   Partly Cloudy
1:15 PM 82.4 °F 82.9 °F 60.8 °F 48% 29.99 in 10.0 mi NNW 8.1 mph - N/A   Partly Cloudy
1:35 PM 84.2 °F 84.4 °F 60.8 °F 45% 29.99 in 10.0 mi NNW 5.8 mph - N/A   Clear
1:55 PM 82.4 °F 82.9 °F 60.8 °F 48% 29.98 in 10.0 mi WNW 4.6 mph - N/A   Clear
2:15 PM 84.2 °F 83.8 °F 59.0 °F 42% 29.98 in 10.0 mi Variable 5.8 mph 11.5 mph N/A   Clear
2:35 PM 84.2 °F 83.8 °F 59.0 °F 42% 29.98 in 10.0 mi North 6.9 mph 13.8 mph N/A   Clear
2:55 PM 84.2 °F 83.5 °F 57.2 °F 40% 29.98 in 10.0 mi Variable 5.8 mph - N/A   Clear
3:15 PM 84.2 °F 83.5 °F 57.2 °F 40% 29.98 in 10.0 mi NW 5.8 mph - N/A   Clear
3:35 PM 84.2 °F 83.0 °F 55.4 °F 37% 29.98 in 10.0 mi NNW 6.9 mph - N/A   Clear
3:55 PM 84.2 °F 83.0 °F 55.4 °F 37% 29.97 in 10.0 mi North 6.9 mph 12.7 mph N/A   Clear
4:15 PM 84.2 °F 83.5 °F 57.2 °F 40% 29.96 in 10.0 mi NE 4.6 mph - N/A   Clear
4:35 PM 84.2 °F 83.0 °F 55.4 °F 37% 29.96 in 10.0 mi North 11.5 mph - N/A   Clear
4:55 PM 84.2 °F 82.8 °F 53.6 °F 35% 29.96 in 10.0 mi NNW 6.9 mph - N/A   Clear
5:15 PM 84.2 °F 82.8 °F 53.6 °F 35% 29.95 in 10.0 mi NE 5.8 mph - N/A   Clear
5:35 PM 84.2 °F 82.8 °F 53.6 °F 35% 29.95 in 10.0 mi Variable 4.6 mph - N/A   Clear
5:55 PM 84.2 °F 83.0 °F 55.4 °F 37% 29.95 in 10.0 mi North 6.9 mph - N/A   Clear
6:15 PM 84.2 °F 83.0 °F 55.4 °F 37% 29.96 in 10.0 mi NNW 4.6 mph - N/A   Clear
6:35 PM 84.2 °F 83.0 °F 55.4 °F 37% 29.96 in 10.0 mi NNW 5.8 mph - N/A   Clear
6:55 PM 84.2 °F 83.0 °F 55.4 °F 37% 29.97 in 10.0 mi Calm Calm - N/A   Clear
7:15 PM 84.2 °F 82.8 °F 53.6 °F 35% 29.97 in 10.0 mi Calm Calm - N/A   Clear
7:35 PM 82.4 °F 83.9 °F 64.4 °F 54% 29.98 in 10.0 mi Calm Calm - N/A   Clear
7:55 PM 78.8 °F - 64.4 °F 61% 29.99 in 10.0 mi South 4.6 mph - N/A   Clear
8:15 PM 77.0 °F - 66.2 °F 69% 29.99 in 10.0 mi Calm Calm - N/A   Clear
8:35 PM 73.4 °F - 64.4 °F 73% 29.99 in 10.0 mi Calm Calm - N/A   Partly Cloudy
8:55 PM 73.4 °F - 66.2 °F 78% 30.00 in 10.0 mi Calm Calm - N/A   Partly Cloudy
9:15 PM 73.4 °F - 64.4 °F 73% 30.01 in 10.0 mi South 3.5 mph - N/A   Clear
9:35 PM 71.6 °F - 66.2 °F 83% 30.02 in 10.0 mi Calm Calm - N/A   Clear
9:55 PM 71.6 °F - 64.4 °F 78% 30.03 in 10.0 mi Calm Calm - N/A   Clear
10:15 PM 69.8 °F - 64.4 °F 83% 30.04 in 10.0 mi South 4.6 mph - N/A   Clear
10:35 PM 69.8 °F - 64.4 °F 83% 30.05 in 10.0 mi Calm Calm - N/A   Clear
10:55 PM 69.8 °F - 64.4 °F 83% 30.05 in 10.0 mi Calm Calm - N/A   Partly Cloudy
11:15 PM 68.0 °F - 66.2 °F 94% 30.05 in 10.0 mi Calm Calm - N/A   Clear
11:35 PM 68.0 °F - 66.2 °F 94% 30.05 in 10.0 mi Calm Calm - N/A   Clear
11:55 PM 68.0 °F - 64.4 °F 88% 30.05 in 10.0 mi Calm Calm - N/A   Clear